Change the Weather History Date:

Monday, October 3, 2011

  Actual Average Record
Temperature  
Mean Temperature 63 °F -  
Max Temperature 80 °F 61 °F 87 °F (1997)
Min Temperature 46 °F 40 °F 24 °F (1996)
Degree Days  
Heating Degree Days 2    
Growing Degree Days 13 (Base 50)    
Moisture  
Dew Point 46 °F    
Average Humidity 69    
Maximum Humidity 100    
Minimum Humidity 26    
Precipitation  
Precipitation 0.00 in - - ()
Sea Level Pressure  
Sea Level Pressure 30.17 in    
Wind  
Wind Speed 2 mph (SE)    
Max Wind Speed 10 mph    
Max Gust Speed -    
Visibility 10 miles    
Events      
Averages and records for this station are not official NWS values.
T = Trace of Precipitation, MM = Missing Value Source: NWS Daily Summary

Daily Weather History Graph

Daily Weather History Graph

Search for Another Location

Airport or City:

Trip Planner

Search our weather history database for the weather conditions in past years. The results will help you decide how hot, cold, wet, or windy it might be!

Date:

Astronomy

Oct. 03, 2011 Rise Set
Actual Time 7:13 AM CDT 6:49 PM CDT
Civil Twilight 6:43 AM CDT 7:19 PM CDT
Nautical Twilight 6:09 AM CDT 7:53 PM CDT
Astronomical Twilight 5:35 AM CDT 8:27 PM CDT
Moon 2:26 PM CDT (10/3) 11:39 PM CDT (10/3)
Length of Visible Light 12h 35m
Length of Day
11h 36m
Waxing Crescent, 45% of the Moon is Illuminated
Oct 3
Waxing Crescent
Oct 3
First Quarter
Oct 11
Full
Oct 19
Last Quarter
Oct 26
New

Hourly Weather History & Observations

Time (CDT) Temp. Dew Point Humidity Pressure Visibility Wind Dir Wind Speed Gust Speed Precip Events Conditions
12:34 AM 55.4 °F 46.4 °F 72% 30.14 in 10.0 mi SSE 3.5 mph - N/A   Clear
12:54 AM 55.4 °F 46.4 °F 72% 30.15 in 10.0 mi SSE 4.6 mph - N/A   Clear
1:14 AM 53.6 °F 44.6 °F 72% 30.15 in 10.0 mi Calm Calm - N/A   Clear
1:33 AM 55.4 °F 46.4 °F 72% 30.15 in 10.0 mi Calm Calm - N/A   Clear
2:14 AM 53.6 °F 46.4 °F 77% 30.15 in 10.0 mi Calm Calm - N/A   Clear
2:34 AM 53.6 °F 46.4 °F 77% 30.16 in 10.0 mi Calm Calm - N/A   Clear
2:54 AM 48.2 °F 44.6 °F 87% 30.16 in 10.0 mi Calm Calm - N/A   Clear
3:13 AM 50.0 °F 46.4 °F 87% 30.16 in 10.0 mi Calm Calm - N/A   Clear
3:34 AM 50.0 °F 46.4 °F 87% 30.16 in 10.0 mi Calm Calm - N/A   Clear
3:53 AM 50.0 °F 46.4 °F 87% 30.16 in 10.0 mi Calm Calm - N/A   Clear
4:14 AM 48.2 °F 46.4 °F 93% 30.16 in 10.0 mi Calm Calm - N/A   Clear
4:34 AM 46.4 °F 44.6 °F 93% 30.17 in 10.0 mi Calm Calm - N/A   Clear
4:54 AM 46.4 °F 44.6 °F 93% 30.18 in 10.0 mi Calm Calm - N/A   Clear
5:14 AM 46.4 °F 46.4 °F 100% 30.18 in 10.0 mi Calm Calm - N/A   Clear
5:34 AM 46.4 °F 44.6 °F 93% 30.18 in 10.0 mi Calm Calm - N/A   Clear
5:53 AM 46.4 °F 44.6 °F 93% 30.18 in 10.0 mi Calm Calm - N/A   Clear
6:14 AM 46.4 °F 46.4 °F 100% 30.18 in 10.0 mi Calm Calm - N/A   Clear
6:34 AM 46.4 °F 44.6 °F 93% 30.19 in 10.0 mi Calm Calm - N/A   Clear
6:45 AM 46.4 °F 44.6 °F 93% 30.19 in 10.0 mi Calm Calm - N/A   Clear
7:45 AM 48.2 °F 44.6 °F 87% 30.20 in 10.0 mi Calm Calm - N/A   Clear
8:43 AM 55.4 °F 48.2 °F 77% 30.20 in 10.0 mi Calm Calm - N/A   Clear
9:55 AM 64.4 °F 48.2 °F 56% 30.20 in 10.0 mi SSE 4.6 mph - N/A   Clear
10:45 AM 68.0 °F 46.4 °F 46% 30.21 in 10.0 mi SSE 4.6 mph - N/A   Clear
11:45 AM 71.6 °F 46.4 °F 41% 30.21 in 10.0 mi Calm Calm - N/A   Clear
1:45 PM 78.8 °F 42.8 °F 28% 30.18 in 10.0 mi SSE 10.4 mph - N/A   Clear
2:45 PM 80.6 °F 46.4 °F 30% 30.16 in 10.0 mi SE 6.9 mph - N/A   Clear
3:45 PM 80.6 °F 42.8 °F 26% 30.15 in 10.0 mi SSE 10.4 mph - N/A   Clear
5:45 PM 80.6 °F 46.4 °F 30% 30.14 in 10.0 mi ESE 5.8 mph - N/A   Clear
6:55 PM 69.8 °F 48.2 °F 46% 30.14 in 12.0 mi ESE 5.8 mph - N/A   Clear
7:45 PM 68.0 °F 48.2 °F 49% 30.14 in 12.0 mi ESE 5.8 mph - N/A   Clear
8:45 PM 68.0 °F 48.2 °F 49% 30.14 in 12.0 mi SE 6.9 mph - N/A   Clear
9:21 PM 66.2 °F 48.2 °F 52% 30.15 in 10.0 mi SE 5.8 mph - N/A   Clear
9:41 PM 64.4 °F 48.2 °F 56% 30.15 in 10.0 mi SE 4.6 mph - N/A   Clear
10:01 PM 64.4 °F 48.2 °F 56% 30.16 in 10.0 mi SE 5.8 mph - N/A   Clear
10:41 PM 64.4 °F 48.2 °F 56% 30.16 in 10.0 mi SE 5.8 mph - N/A   Clear
11:01 PM 62.6 °F 48.2 °F 59% 30.16 in 10.0 mi SSE 4.6 mph - N/A   Clear
11:21 PM 60.8 °F 48.2 °F 63% 30.16 in 10.0 mi SSE 4.6 mph - N/A   Clear
11:41 PM 60.8 °F 48.2 °F 63% 30.16 in 10.0 mi SE 6.9 mph - N/A   Clear